Time,TemperatureF,DewpointF,PressureIn,WindDirection,WindDirectionDegrees,WindSpeedMPH,WindSpeedGustMPH,Humidity,HourlyPrecipIn,Conditions,Clouds,dailyrainin,SoftwareType,DateUTC
2014-08-20 00:02:00,65.4,63.9,29.81,SSW,195,0.0,0.0,95,0.00,,SCT041,0.00,VWS V14.01,2014-08-20 05:02:00,
2014-08-20 00:07:00,65.2,63.7,29.81,SSW,195,0.0,0.0,95,0.00,,SCT041,0.00,VWS V14.01,2014-08-20 05:07:00,
2014-08-20 00:12:00,65.0,63.8,29.81,SSW,195,0.0,0.0,96,0.00,,SCT041,0.00,VWS V14.01,2014-08-20 05:12:00,
2014-08-20 00:17:00,64.9,63.7,29.81,SSW,195,0.0,0.0,96,0.00,,SCT041,0.00,VWS V14.01,2014-08-20 05:17:00,
2014-08-20 00:22:00,64.9,63.7,29.81,SSW,195,0.0,0.0,96,0.00,,SCT043,0.00,VWS V14.01,2014-08-20 05:22:00,
2014-08-20 00:27:00,64.9,63.7,29.81,SSW,195,0.0,0.0,96,0.00,,SCT043,0.00,VWS V14.01,2014-08-20 05:27:00,
2014-08-20 00:32:00,64.8,63.3,29.81,SSW,195,0.0,0.0,95,0.00,,SCT043,0.00,VWS V14.01,2014-08-20 05:32:00,
2014-08-20 00:37:00,64.6,63.4,29.81,SSW,195,0.0,0.0,96,0.00,,SCT043,0.00,VWS V14.01,2014-08-20 05:37:00,
2014-08-20 00:42:00,64.4,63.2,29.81,SSW,195,0.0,0.0,96,0.00,,CLR,0.00,VWS V14.01,2014-08-20 05:42:00,
2014-08-20 00:47:00,64.2,63.0,29.81,SSW,195,0.0,0.0,96,0.00,,CLR,0.00,VWS V14.01,2014-08-20 05:47:00,
2014-08-20 00:52:00,64.0,62.8,29.81,SSW,195,0.0,0.0,96,0.00,,CLR,0.00,VWS V14.01,2014-08-20 05:52:00,
2014-08-20 00:57:00,64.2,63.0,29.81,SSW,195,0.0,0.0,96,0.00,,CLR,0.00,VWS V14.01,2014-08-20 05:57:00,
2014-08-20 01:03:00,64.1,62.9,29.82,SSW,195,0.0,0.0,96,0.00,,,0.00,VWS V14.01,2014-08-20 06:03:00,
2014-08-20 01:08:00,63.8,62.6,29.81,SSW,195,0.0,0.0,96,0.00,,,0.00,VWS V14.01,2014-08-20 06:08:00,
2014-08-20 01:13:00,63.6,62.4,29.81,SSW,195,0.0,0.0,96,0.00,,,0.00,VWS V14.01,2014-08-20 06:13:00,
2014-08-20 01:18:00,63.5,62.3,29.81,SSW,195,0.0,0.0,96,0.00,,,0.00,VWS V14.01,2014-08-20 06:18:00,
2014-08-20 01:23:00,63.6,62.4,29.81,SSW,195,0.0,0.0,96,0.00,,,0.00,VWS V14.01,2014-08-20 06:23:00,
2014-08-20 01:28:00,63.5,62.3,29.81,SSW,195,0.0,0.0,96,0.00,,,0.00,VWS V14.01,2014-08-20 06:28:00,
2014-08-20 01:33:00,63.4,62.2,29.81,SSW,195,0.0,0.0,96,0.00,,,0.00,VWS V14.01,2014-08-20 06:33:00,
2014-08-20 01:38:00,63.3,62.1,29.81,SSW,195,0.0,0.0,96,0.00,,,0.00,VWS V14.01,2014-08-20 06:38:00,
2014-08-20 01:43:00,63.2,62.0,29.81,SSW,195,0.0,0.0,96,0.00,,CLR,0.00,VWS V14.01,2014-08-20 06:43:00,
2014-08-20 01:48:00,63.2,62.0,29.81,SSW,195,0.0,0.0,96,0.00,,CLR,0.00,VWS V14.01,2014-08-20 06:48:00,
2014-08-20 01:53:00,63.1,61.9,29.81,SSW,195,0.0,0.0,96,0.00,,CLR,0.00,VWS V14.01,2014-08-20 06:53:00,
2014-08-20 01:58:00,63.1,61.9,29.81,SSW,195,0.0,0.0,96,0.00,,CLR,0.00,VWS V14.01,2014-08-20 06:58:00,
2014-08-20 02:03:00,63.1,61.9,29.82,SSW,195,0.0,0.0,96,0.00,,,0.00,VWS V14.01,2014-08-20 07:03:00,
2014-08-20 02:08:00,63.0,61.8,29.82,SSW,195,0.0,0.0,96,0.00,,,0.00,VWS V14.01,2014-08-20 07:08:00,
2014-08-20 02:13:00,62.9,61.8,29.82,SSW,195,0.0,0.0,96,0.00,,,0.00,VWS V14.01,2014-08-20 07:13:00,
2014-08-20 02:18:00,62.8,61.7,29.82,SSW,195,0.0,0.0,96,0.00,,,0.00,VWS V14.01,2014-08-20 07:18:00,
2014-08-20 02:23:00,62.7,61.5,29.82,SSW,195,0.0,0.0,96,0.00,,,0.00,VWS V14.01,2014-08-20 07:23:00,
2014-08-20 02:28:00,62.8,61.7,29.82,SSW,195,0.0,0.0,96,0.00,,,0.00,VWS V14.01,2014-08-20 07:28:00,
2014-08-20 02:33:00,62.9,61.8,29.82,SSW,195,0.0,0.0,96,0.00,,,0.00,VWS V14.01,2014-08-20 07:33:00,
2014-08-20 02:38:00,62.9,61.8,29.82,SSW,195,0.0,0.0,96,0.00,,,0.00,VWS V14.01,2014-08-20 07:38:00,
2014-08-20 02:43:00,62.9,61.8,29.82,SSW,195,0.0,0.0,96,0.00,,,0.00,VWS V14.01,2014-08-20 07:43:00,
2014-08-20 02:48:00,62.8,61.7,29.82,SSW,195,0.0,0.0,96,0.00,,,0.00,VWS V14.01,2014-08-20 07:48:00,
2014-08-20 02:53:00,63.0,61.8,29.82,SSW,195,0.0,0.0,96,0.00,,,0.00,VWS V14.01,2014-08-20 07:53:00,
2014-08-20 02:59:00,63.2,62.3,29.82,SSW,195,0.0,0.0,97,0.00,,,0.00,VWS V14.01,2014-08-20 07:59:00,
2014-08-20 03:04:00,63.3,62.4,29.82,SSW,195,0.0,0.0,97,0.00,,,0.00,VWS V14.01,2014-08-20 08:04:00,
2014-08-20 03:10:00,63.3,62.4,29.82,SSW,195,0.0,0.0,97,0.00,,,0.00,VWS V14.01,2014-08-20 08:10:00,
2014-08-20 03:15:00,63.2,62.0,29.82,SSW,195,0.0,0.0,96,0.00,,,0.00,VWS V14.01,2014-08-20 08:15:00,
2014-08-20 03:21:00,63.0,61.8,29.82,SSW,195,0.0,0.0,96,0.00,,,0.00,VWS V14.01,2014-08-20 08:21:00,
2014-08-20 03:26:00,62.7,61.5,29.82,SSW,195,0.0,0.0,96,0.00,,,0.00,VWS V14.01,2014-08-20 08:26:00,
2014-08-20 03:31:00,62.6,61.5,29.82,SSW,195,0.0,0.0,96,0.00,,,0.00,VWS V14.01,2014-08-20 08:31:00,
2014-08-20 03:36:00,62.6,61.7,29.82,SSW,195,0.0,0.0,97,0.00,,,0.00,VWS V14.01,2014-08-20 08:36:00,
2014-08-20 03:42:00,62.8,61.9,29.82,SSW,195,0.0,0.0,97,0.00,,,0.00,VWS V14.01,2014-08-20 08:42:00,
2014-08-20 03:47:00,62.9,62.0,29.82,SSW,195,0.0,0.0,97,0.00,,,0.00,VWS V14.01,2014-08-20 08:47:00,
2014-08-20 03:52:00,62.9,62.0,29.82,SSW,195,0.0,0.0,97,0.00,,,0.00,VWS V14.01,2014-08-20 08:52:00,
2014-08-20 03:57:00,63.0,62.1,29.82,SSW,195,0.0,0.0,97,0.00,,,0.00,VWS V14.01,2014-08-20 08:57:00,
2014-08-20 04:02:00,63.0,62.1,29.82,SSW,195,0.0,0.0,97,0.00,,,0.00,VWS V14.01,2014-08-20 09:02:00,
2014-08-20 04:07:00,63.0,61.8,29.82,SSW,195,0.0,0.0,96,0.00,,,0.00,VWS V14.01,2014-08-20 09:07:00,
2014-08-20 04:12:00,62.9,61.8,29.82,SSW,195,0.0,0.0,96,0.00,,,0.00,VWS V14.01,2014-08-20 09:12:00,
2014-08-20 04:17:00,62.5,61.3,29.82,SSW,195,0.0,0.0,96,0.00,,,0.00,VWS V14.01,2014-08-20 09:17:00,
2014-08-20 04:22:00,62.3,61.2,29.82,SSW,195,0.0,0.0,96,0.00,,,0.00,VWS V14.01,2014-08-20 09:22:00,
2014-08-20 04:27:00,62.2,61.0,29.82,SSW,195,0.0,0.0,96,0.00,,,0.00,VWS V14.01,2014-08-20 09:27:00,
2014-08-20 04:32:00,62.1,61.0,29.82,SSW,195,0.0,0.0,96,0.00,,,0.00,VWS V14.01,2014-08-20 09:32:00,
2014-08-20 04:37:00,62.0,60.8,29.82,SSW,195,0.0,0.0,96,0.00,,,0.00,VWS V14.01,2014-08-20 09:37:00,
2014-08-20 04:42:00,62.0,61.1,29.82,SSW,195,0.0,0.0,97,0.00,,,0.00,VWS V14.01,2014-08-20 09:42:00,
2014-08-20 04:47:00,62.2,61.3,29.82,SSW,195,0.0,0.0,97,0.00,,,0.00,VWS V14.01,2014-08-20 09:47:00,
2014-08-20 04:53:00,62.3,61.4,29.82,SSW,195,0.0,0.0,97,0.00,,,0.00,VWS V14.01,2014-08-20 09:53:00,
2014-08-20 04:58:00,62.5,61.6,29.83,SSW,195,0.0,0.0,97,0.00,,,0.00,VWS V14.01,2014-08-20 09:58:00,
2014-08-20 05:04:00,62.5,61.6,29.83,SSW,195,0.0,0.0,97,0.00,,,0.00,VWS V14.01,2014-08-20 10:04:00,
2014-08-20 05:09:00,62.3,61.2,29.82,SSW,195,0.0,0.0,96,0.00,,,0.00,VWS V14.01,2014-08-20 10:09:00,
2014-08-20 05:14:00,62.2,61.3,29.83,SSW,195,0.0,0.0,97,0.00,,,0.00,VWS V14.01,2014-08-20 10:14:00,
2014-08-20 05:19:00,62.0,61.1,29.82,SSW,195,0.0,0.0,97,0.00,,,0.00,VWS V14.01,2014-08-20 10:19:00,
2014-08-20 05:25:00,62.0,61.1,29.82,SSW,195,0.0,0.0,97,0.00,,,0.00,VWS V14.01,2014-08-20 10:25:00,
2014-08-20 05:30:00,62.0,61.1,29.82,SSW,195,0.0,0.0,97,0.00,,,0.00,VWS V14.01,2014-08-20 10:30:00,
2014-08-20 05:35:00,62.0,61.1,29.82,SSW,195,0.0,0.0,97,0.00,,,0.00,VWS V14.01,2014-08-20 10:35:00,
2014-08-20 05:41:00,62.1,61.2,29.82,SSW,195,0.0,0.0,97,0.00,,,0.00,VWS V14.01,2014-08-20 10:41:00,
2014-08-20 05:46:00,62.0,61.1,29.82,SSW,195,0.0,0.0,97,0.00,,,0.00,VWS V14.01,2014-08-20 10:46:00,
2014-08-20 05:51:00,61.8,60.9,29.82,SSW,195,0.0,0.0,97,0.00,,,0.00,VWS V14.01,2014-08-20 10:51:00,
2014-08-20 05:56:00,61.7,60.8,29.82,SSW,195,0.0,0.0,97,0.00,,,0.00,VWS V14.01,2014-08-20 10:56:00,
2014-08-20 06:01:00,61.7,60.8,29.82,SSW,195,0.0,0.0,97,0.00,,,0.00,VWS V14.01,2014-08-20 11:01:00,
2014-08-20 06:06:00,61.7,60.8,29.82,SSW,195,0.0,0.0,97,0.00,,,0.00,VWS V14.01,2014-08-20 11:06:00,
2014-08-20 06:11:00,61.8,60.9,29.82,SSW,195,0.0,0.0,97,0.00,,,0.00,VWS V14.01,2014-08-20 11:11:00,
2014-08-20 06:17:00,61.8,60.9,29.82,SSW,195,0.0,0.0,97,0.00,,,0.00,VWS V14.01,2014-08-20 11:17:00,
2014-08-20 06:22:00,61.7,60.8,29.83,SSW,195,0.0,0.0,97,0.00,,,0.00,VWS V14.01,2014-08-20 11:22:00,
2014-08-20 06:27:00,61.7,60.8,29.82,SSW,195,0.0,0.0,97,0.00,,,0.00,VWS V14.01,2014-08-20 11:27:00,
2014-08-20 06:32:00,61.7,60.8,29.83,SSW,195,0.0,0.0,97,0.00,,,0.00,VWS V14.01,2014-08-20 11:32:00,
2014-08-20 06:37:00,61.8,60.9,29.83,SSW,195,0.0,0.0,97,0.00,,,0.00,VWS V14.01,2014-08-20 11:37:00,
2014-08-20 06:42:00,61.9,61.0,29.83,SSW,195,0.0,0.0,97,0.00,, +RA,0.00,VWS V14.01,2014-08-20 11:42:00,
2014-08-20 06:47:00,62.0,61.1,29.84,SSW,195,0.0,0.0,97,0.00,, +RA,0.00,VWS V14.01,2014-08-20 11:47:00,
2014-08-20 06:53:00,62.0,61.1,29.84,SSW,195,0.0,0.0,97,0.00,, +RA,0.00,VWS V14.01,2014-08-20 11:53:00,
2014-08-20 06:58:00,62.0,61.1,29.85,SSW,195,0.0,0.0,97,0.00,, +RA,0.00,VWS V14.01,2014-08-20 11:58:00,
2014-08-20 07:03:00,61.9,61.0,29.85,SSW,195,0.0,0.0,97,0.00,,-RA,0.00,VWS V14.01,2014-08-20 12:03:00,
2014-08-20 07:08:00,62.0,61.1,29.86,SSW,195,0.0,0.0,97,0.00,,-RA,0.00,VWS V14.01,2014-08-20 12:08:00,
2014-08-20 07:13:00,62.1,61.2,29.86,SSW,195,0.0,0.0,97,0.00,,-RA,0.00,VWS V14.01,2014-08-20 12:13:00,
2014-08-20 07:18:00,62.3,61.4,29.86,SSW,195,0.0,0.0,97,0.00,,-RA,0.00,VWS V14.01,2014-08-20 12:18:00,
2014-08-20 07:23:00,62.4,61.5,29.86,SSW,195,0.0,0.0,97,0.00,,OVC001,0.00,VWS V14.01,2014-08-20 12:23:00,
2014-08-20 07:28:00,62.6,61.7,29.86,SSW,195,0.0,0.0,97,0.00,,OVC001,0.00,VWS V14.01,2014-08-20 12:28:00,
2014-08-20 07:34:00,62.8,61.9,29.87,SSW,195,0.0,0.0,97,0.00,,OVC001,0.00,VWS V14.01,2014-08-20 12:34:00,
2014-08-20 07:39:00,63.0,62.1,29.88,SSW,195,0.0,0.0,97,0.00,,OVC001,0.00,VWS V14.01,2014-08-20 12:39:00,
2014-08-20 07:44:00,63.2,62.3,29.88,SSW,195,0.0,1.0,97,0.00,,OVC001,0.00,VWS V14.01,2014-08-20 12:44:00,
2014-08-20 07:49:00,63.3,62.4,29.88,SSW,195,0.0,0.0,97,0.00,,OVC001,0.00,VWS V14.01,2014-08-20 12:49:00,
2014-08-20 07:54:00,63.4,62.5,29.88,SSW,195,0.0,0.0,97,0.00,,OVC001,0.00,VWS V14.01,2014-08-20 12:54:00,
2014-08-20 07:59:00,63.6,62.7,29.88,SSW,195,0.0,0.0,97,0.00,,OVC001,0.00,VWS V14.01,2014-08-20 12:59:00,
2014-08-20 08:04:00,63.8,62.9,29.88,SSW,195,0.0,0.0,97,0.00,,,0.00,VWS V14.01,2014-08-20 13:04:00,
2014-08-20 08:09:00,64.0,63.1,29.88,SSW,195,0.0,0.0,97,0.00,,,0.00,VWS V14.01,2014-08-20 13:09:00,
2014-08-20 08:14:00,64.4,63.5,29.87,SSW,195,0.0,0.0,97,0.00,,,0.00,VWS V14.01,2014-08-20 13:14:00,
2014-08-20 08:19:00,64.7,64.1,29.87,SSW,195,0.0,0.0,98,0.00,,,0.00,VWS V14.01,2014-08-20 13:19:00,
2014-08-20 08:25:00,65.0,64.4,29.87,SSW,195,0.0,0.0,98,0.00,,,0.00,VWS V14.01,2014-08-20 13:25:00,
2014-08-20 08:30:00,65.2,64.3,29.87,SSW,195,0.0,0.0,97,0.00,,,0.00,VWS V14.01,2014-08-20 13:30:00,
2014-08-20 08:36:00,65.4,64.8,29.86,SSW,195,0.0,0.0,98,0.00,,,0.00,VWS V14.01,2014-08-20 13:36:00,
2014-08-20 08:42:00,65.8,65.2,29.86,SSW,195,0.0,0.0,98,0.00,,,0.00,VWS V14.01,2014-08-20 13:42:00,
2014-08-20 08:47:00,66.1,65.5,29.86,SSW,195,0.0,0.0,98,0.00,,,0.00,VWS V14.01,2014-08-20 13:47:00,
2014-08-20 08:52:00,66.5,65.9,29.86,SSW,195,0.0,0.0,98,0.00,,,0.00,VWS V14.01,2014-08-20 13:52:00,
2014-08-20 08:58:00,66.9,66.3,29.86,SSW,195,0.0,0.0,98,0.00,,,0.00,VWS V14.01,2014-08-20 13:58:00,
2014-08-20 09:04:00,67.1,66.5,29.86,SSW,195,0.0,0.0,98,0.00,,,0.00,VWS V14.01,2014-08-20 14:04:00,
2014-08-20 09:09:00,67.3,66.7,29.87,SSW,195,0.0,0.0,98,0.00,,,0.00,VWS V14.01,2014-08-20 14:09:00,
2014-08-20 09:14:00,67.5,66.9,29.86,SSW,195,0.0,0.0,98,0.00,,,0.00,VWS V14.01,2014-08-20 14:14:00,
2014-08-20 09:19:00,67.8,67.2,29.87,SSW,195,0.0,0.0,98,0.00,,,0.00,VWS V14.01,2014-08-20 14:19:00,
2014-08-20 09:25:00,67.9,67.3,29.86,SSW,195,0.0,0.0,98,0.00,,,0.00,VWS V14.01,2014-08-20 14:25:00,
2014-08-20 09:30:00,68.0,67.1,29.86,SSW,195,0.0,0.0,97,0.00,,,0.00,VWS V14.01,2014-08-20 14:30:00,
2014-08-20 09:35:00,68.1,67.2,29.86,SSW,195,0.0,0.0,97,0.00,,,0.00,VWS V14.01,2014-08-20 14:35:00,
2014-08-20 09:40:00,68.3,67.4,29.86,SSW,195,0.0,0.0,97,0.00,,,0.00,VWS V14.01,2014-08-20 14:40:00,
2014-08-20 09:45:00,68.4,67.5,29.86,SSW,195,0.0,0.0,97,0.00,,,0.00,VWS V14.01,2014-08-20 14:45:00,
2014-08-20 09:51:00,68.7,67.8,29.86,SSW,195,0.0,0.0,97,0.00,,,0.00,VWS V14.01,2014-08-20 14:51:00,
2014-08-20 09:56:00,69.0,68.1,29.86,SSW,195,0.0,0.0,97,0.00,,,0.00,VWS V14.01,2014-08-20 14:56:00,
2014-08-20 10:01:00,69.4,68.8,29.86,SSW,194,0.0,0.0,98,0.00,,SCT005,0.00,VWS V14.01,2014-08-20 15:01:00,
2014-08-20 10:06:00,69.5,68.6,29.86,SSW,194,0.0,0.0,97,0.00,,SCT005,0.00,VWS V14.01,2014-08-20 15:06:00,
2014-08-20 10:11:00,69.6,68.7,29.87,SSW,194,0.0,0.0,97,0.00,,SCT005,0.00,VWS V14.01,2014-08-20 15:11:00,
2014-08-20 10:16:00,69.8,68.9,29.87,SSW,194,0.0,0.0,97,0.00,,SCT005,0.00,VWS V14.01,2014-08-20 15:16:00,
2014-08-20 10:21:00,70.2,69.3,29.88,West,281,0.0,1.0,97,0.00,,CLR,0.00,VWS V14.01,2014-08-20 15:21:00,
2014-08-20 10:27:00,70.4,69.5,29.88,West,281,0.0,0.0,97,0.00,,CLR,0.00,VWS V14.01,2014-08-20 15:27:00,
2014-08-20 10:32:00,70.3,69.4,29.88,West,279,0.0,0.0,97,0.00,,CLR,0.00,VWS V14.01,2014-08-20 15:32:00,
2014-08-20 10:37:00,70.5,69.6,29.88,WNW,291,0.0,0.0,97,0.00,,CLR,0.00,VWS V14.01,2014-08-20 15:37:00,
2014-08-20 10:42:00,70.7,69.5,29.88,WNW,290,0.0,0.0,96,0.00,,CLR,0.00,VWS V14.01,2014-08-20 15:42:00,
2014-08-20 10:47:00,70.6,69.4,29.88,WNW,291,0.0,0.0,96,0.00,,CLR,0.00,VWS V14.01,2014-08-20 15:47:00,
2014-08-20 10:52:00,71.1,69.9,29.88,WNW,286,0.0,0.0,96,0.00,,CLR,0.00,VWS V14.01,2014-08-20 15:52:00,
2014-08-20 10:57:00,71.3,69.8,29.88,SSE,165,0.0,0.0,95,0.00,,CLR,0.00,VWS V14.01,2014-08-20 15:57:00,
2014-08-20 11:02:00,71.8,70.0,29.88,SSE,165,0.0,0.0,94,0.00,,CLR,0.00,VWS V14.01,2014-08-20 16:02:00,
2014-08-20 11:07:00,72.2,70.1,29.88,SE,134,0.0,0.0,93,0.00,,CLR,0.00,VWS V14.01,2014-08-20 16:07:00,
2014-08-20 11:12:00,72.6,70.2,29.87,SE,134,0.0,0.0,92,0.00,,CLR,0.00,VWS V14.01,2014-08-20 16:12:00,
2014-08-20 11:17:00,73.1,70.6,29.87,SE,134,0.0,0.0,92,0.00,,CLR,0.00,VWS V14.01,2014-08-20 16:17:00,
2014-08-20 11:22:00,73.5,70.7,29.87,SE,134,0.0,0.0,91,0.00,,CLR,0.00,VWS V14.01,2014-08-20 16:22:00,
2014-08-20 11:27:00,73.8,70.4,29.86,SE,134,0.0,0.0,89,0.00,,CLR,0.00,VWS V14.01,2014-08-20 16:27:00,
2014-08-20 11:32:00,74.1,70.7,29.86,SE,124,0.0,0.0,89,0.00,,CLR,0.00,VWS V14.01,2014-08-20 16:32:00,
2014-08-20 11:37:00,74.4,70.3,29.85,SE,124,0.0,0.0,87,0.00,,CLR,0.00,VWS V14.01,2014-08-20 16:37:00,
2014-08-20 11:42:00,74.7,70.6,29.85,ESE,122,0.0,0.0,87,0.00,,SCT017,0.00,VWS V14.01,2014-08-20 16:42:00,
2014-08-20 11:47:00,75.0,70.9,29.85,ESE,119,0.0,0.0,87,0.00,,SCT017,0.00,VWS V14.01,2014-08-20 16:47:00,
2014-08-20 11:52:00,75.5,71.0,29.85,ESE,119,0.0,0.0,86,0.00,,SCT017,0.00,VWS V14.01,2014-08-20 16:52:00,
2014-08-20 11:58:00,76.0,71.5,29.85,ESE,119,0.0,1.0,86,0.00,,SCT017,0.00,VWS V14.01,2014-08-20 16:58:00,
2014-08-20 12:03:00,76.4,71.2,29.86,ESE,119,0.0,0.0,84,0.00,,CLR,0.00,VWS V14.01,2014-08-20 17:03:00,
2014-08-20 12:08:00,76.9,71.7,29.86,ESE,119,0.0,0.0,84,0.00,,CLR,0.00,VWS V14.01,2014-08-20 17:08:00,
2014-08-20 12:13:00,76.9,70.3,29.87,ESE,103,0.0,1.0,80,0.00,,CLR,0.00,VWS V14.01,2014-08-20 17:13:00,
2014-08-20 12:18:00,77.1,71.2,29.87,ESE,103,0.0,0.0,82,0.00,,CLR,0.00,VWS V14.01,2014-08-20 17:18:00,
2014-08-20 12:24:00,77.3,71.4,29.87,ESE,103,0.0,0.0,82,0.00,,SCT021,0.00,VWS V14.01,2014-08-20 17:24:00,
2014-08-20 12:29:00,77.5,71.2,29.87,East,98,0.0,0.0,81,0.00,,SCT021,0.00,VWS V14.01,2014-08-20 17:29:00,
2014-08-20 12:35:00,78.2,71.9,29.87,East,88,0.0,0.0,81,0.00,,SCT021,0.00,VWS V14.01,2014-08-20 17:35:00,
2014-08-20 12:41:00,78.6,70.8,29.88,East,84,0.0,0.0,77,0.00,,SCT021,0.00,VWS V14.01,2014-08-20 17:41:00,
2014-08-20 12:46:00,79.0,71.6,29.88,East,84,0.0,0.0,78,0.00,,SCT021,0.00,VWS V14.01,2014-08-20 17:46:00,
2014-08-20 12:51:00,79.4,71.9,29.88,ESE,103,0.0,0.0,78,0.00,,SCT021,0.00,VWS V14.01,2014-08-20 17:51:00,
2014-08-20 12:56:00,79.8,71.2,29.88,ESE,103,0.0,0.0,75,0.00,,SCT021,0.00,VWS V14.01,2014-08-20 17:56:00,
2014-08-20 13:01:00,80.3,71.7,29.88,ESE,115,0.0,0.0,75,0.00,,SCT023,0.00,VWS V14.01,2014-08-20 18:01:00,
2014-08-20 13:07:00,80.4,71.8,29.88,ESE,116,0.0,1.0,75,0.00,,SCT023,0.00,VWS V14.01,2014-08-20 18:07:00,
2014-08-20 13:12:00,80.4,71.0,29.88,SSE,151,0.0,0.0,73,0.00,,SCT023,0.00,VWS V14.01,2014-08-20 18:12:00,
2014-08-20 13:18:00,80.7,70.4,29.88,SE,143,0.0,8.0,71,0.00,,SCT023,0.00,VWS V14.01,2014-08-20 18:18:00,
2014-08-20 13:23:00,81.0,71.1,29.88,SSE,166,0.0,0.0,72,0.00,,SCT095,0.00,VWS V14.01,2014-08-20 18:23:00,
2014-08-20 13:28:00,81.3,70.2,29.87,South,171,0.0,0.0,69,0.00,,SCT095,0.00,VWS V14.01,2014-08-20 18:28:00,
2014-08-20 13:34:00,81.3,70.2,29.87,South,170,0.0,0.0,69,0.00,,SCT095,0.00,VWS V14.01,2014-08-20 18:34:00,
2014-08-20 13:39:00,81.6,71.3,29.87,SE,144,0.0,1.0,71,0.00,,SCT095,0.00,VWS V14.01,2014-08-20 18:39:00,
2014-08-20 13:44:00,81.6,70.0,29.87,South,170,1.0,4.0,68,0.00,,SCT031,0.00,VWS V14.01,2014-08-20 18:44:00,
2014-08-20 13:49:00,82.0,71.3,29.87,SSE,160,0.0,0.0,70,0.00,,SCT031,0.00,VWS V14.01,2014-08-20 18:49:00,
2014-08-20 13:55:00,82.3,70.7,29.87,SSE,164,0.0,0.0,68,0.00,,SCT031,0.00,VWS V14.01,2014-08-20 18:55:00,
2014-08-20 14:00:00,82.2,70.2,29.87,SSE,164,0.0,2.0,67,0.00,,SCT030,0.00,VWS V14.01,2014-08-20 19:00:00,
2014-08-20 14:05:00,81.9,69.9,29.87,SSE,167,0.0,0.0,67,0.00,,SCT030,0.00,VWS V14.01,2014-08-20 19:05:00,
2014-08-20 14:10:00,82.0,72.9,29.86,SSE,167,0.0,0.0,74,0.00,,SCT030,0.00,VWS V14.01,2014-08-20 19:10:00,
2014-08-20 14:15:00,82.5,70.4,29.86,SSE,166,0.0,0.0,67,0.00,,SCT030,0.00,VWS V14.01,2014-08-20 19:15:00,
2014-08-20 14:20:00,82.9,69.9,29.86,SSE,160,0.0,0.0,65,0.00,,SCT032,0.00,VWS V14.01,2014-08-20 19:20:00,
2014-08-20 14:25:00,83.3,71.2,29.86,SSE,160,0.0,0.0,67,0.00,,SCT032,0.00,VWS V14.01,2014-08-20 19:25:00,
2014-08-20 14:31:00,83.2,70.2,29.86,SSE,160,0.0,0.0,65,0.00,,SCT032,0.00,VWS V14.01,2014-08-20 19:31:00,
2014-08-20 14:36:00,83.2,70.2,29.86,SSE,153,0.0,4.0,65,0.00,,SCT032,0.00,VWS V14.01,2014-08-20 19:36:00,
2014-08-20 14:41:00,82.6,70.1,29.86,South,169,0.0,2.0,66,0.00,,SCT032,0.00,VWS V14.01,2014-08-20 19:41:00,
2014-08-20 14:47:00,82.3,70.3,29.87,South,169,0.0,0.0,67,0.00,,SCT032,0.00,VWS V14.01,2014-08-20 19:47:00,
2014-08-20 14:53:00,82.1,70.5,29.87,SSE,163,0.0,0.0,68,0.00,,SCT032,0.00,VWS V14.01,2014-08-20 19:53:00,
2014-08-20 14:58:00,82.7,70.6,29.86,SSE,163,0.0,1.0,67,0.00,,SCT032,0.00,VWS V14.01,2014-08-20 19:58:00,
2014-08-20 15:04:00,83.6,71.1,29.86,SSE,159,0.0,0.0,66,0.00,,SCT038,0.00,VWS V14.01,2014-08-20 20:04:00,
2014-08-20 15:09:00,84.1,68.2,29.86,SSE,162,0.0,2.0,59,0.00,,SCT038,0.00,VWS V14.01,2014-08-20 20:09:00,
2014-08-20 15:14:00,84.5,69.6,29.86,SSE,159,1.0,4.0,61,0.00,,SCT038,0.00,VWS V14.01,2014-08-20 20:14:00,
2014-08-20 15:20:00,84.6,67.7,29.86,SE,146,0.0,1.0,57,0.00,,SCT038,0.00,VWS V14.01,2014-08-20 20:20:00,
2014-08-20 15:25:00,84.5,67.6,29.86,SSE,153,0.0,6.0,57,0.00,,SCT038,0.00,VWS V14.01,2014-08-20 20:25:00,
2014-08-20 15:30:00,84.3,69.4,29.86,SSE,155,1.0,2.0,61,0.00,,SCT038,0.00,VWS V14.01,2014-08-20 20:30:00,
2014-08-20 15:35:00,84.1,68.2,29.86,SSE,155,0.0,2.0,59,0.00,,SCT038,0.00,VWS V14.01,2014-08-20 20:35:00,
2014-08-20 15:41:00,83.5,67.2,29.86,SSE,157,0.0,5.0,58,0.00,,SCT040,0.00,VWS V14.01,2014-08-20 20:41:00,
2014-08-20 15:46:00,83.4,70.4,29.85,SSE,157,0.0,0.0,65,0.00,,SCT040,0.00,VWS V14.01,2014-08-20 20:46:00,
2014-08-20 15:51:00,83.3,69.4,29.85,SSE,157,0.0,0.0,63,0.00,,SCT040,0.00,VWS V14.01,2014-08-20 20:51:00,
2014-08-20 15:56:00,83.2,68.4,29.85,SSE,157,0.0,0.0,61,0.00,,SCT040,0.00,VWS V14.01,2014-08-20 20:56:00,